Location: Elliott Corner
(37.4627°N, 119.7746°W)
Time: 23:10:12
(UTC+00:00)

Envisat - Pass Details

Date: 10 September 2024
Orbit: 762 x 764 km, 98.3° (Epoch: 13 October)

Event Time Altitude Azimuth Distance (km) Brightness Sun altitude
Rises 12:19:03 0° 355° (N) 3,233 6.4 -16.0°
Reaches altitude 10° 12:21:57 10° 338° (NNW) 2,302 5.4 -15.4°
Maximum altitude 12:25:26 19° 295° (WNW) 1,754 4.4 -14.8°
Enters shadow 12:26:20 18° 281° (W) 1,795 4.4 -14.6°
